Salem, Oregon, United States (97301)
Lat: 44.94N, Lon: 123.03W
Wx Zone: ORZ007
Local Info
Past Weather Observations for Thursday, September 18, 2014

NOTE: This archive is for the closest National Weather Service station to Salem. Information may differ from the station used for current weather conditions.

Click here for Long-term Archive

Time Weather Temperature Dewpoint Humidity Pressure Winds Precip Visibility
23:56
Clear
61°F / 16°C 54°F / 12°C 77% 30.01 in
(1016 mb)
Calm - 10SM
22:56
Clear
63°F / 17°C 55°F / 13°C 77% 30.01 in
(1016 mb)
NNW 3.5 mph
(NNW 6 kph)
- 10SM
21:56
Clear
64°F / 18°C 55°F / 13°C 73% 29.98 in
(1015 mb)
SSW 4.6 mph
(SSW 7 kph)
- 10SM
20:56
Mostly Cloudy
66°F / 19°C 55°F / 13°C 68% 29.98 in
(1015 mb)
SSW 5.8 mph
(SSW 9 kph)
- 10SM
19:56
Mostly Cloudy
70°F / 21°C 55°F / 13°C 60% 29.95 in
(1014 mb)
NW 8.1 mph
(NW 13 kph)
- 10SM
18:56
Overcast
72°F / 22°C 55°F / 13°C 57% 29.92 in
(1013 mb)
Calm - 10SM
17:56
Overcast
73°F / 23°C 55°F / 13°C 53% 29.92 in
(1013 mb)
Calm - 10SM
16:56
Overcast
73°F / 23°C 54°F / 12°C 50% 29.89 in
(1012 mb)
SSE 6.9 mph
(SSE 11 kph)
- 10SM
15:56
Overcast
73°F / 23°C 54°F / 12°C 50% 29.89 in
(1012 mb)
E 5.8 mph
(E 9 kph)
- 10SM
14:56
Mostly Cloudy
73°F / 23°C 55°F / 13°C 53% 29.89 in
(1012 mb)
E 4.6 mph
(E 7 kph)
- 10SM
13:56
Mostly Cloudy
73°F / 23°C 55°F / 13°C 53% 29.89 in
(1012 mb)
SE 6.9 mph
(SE 11 kph)
- 10SM
12:56
Partly Cloudy
72°F / 22°C 57°F / 14°C 61% 29.89 in
(1012 mb)
S 6.9 mph
(S 11 kph)
- 10SM
11:56
Overcast
70°F / 21°C 57°F / 14°C 64% 29.89 in
(1012 mb)
Variable 3.5 mph
(Variable 6 kph)
- 10SM
10:56
Overcast
66°F / 19°C 57°F / 14°C 73% 29.89 in
(1012 mb)
S 3.5 mph
(S 6 kph)
- 10SM
09:56
Overcast
64°F / 18°C 57°F / 14°C 78% 29.86 in
(1011 mb)
SSE 5.8 mph
(SSE 9 kph)
- 10SM
08:56
Overcast
63°F / 17°C 57°F / 14°C 83% 29.83 in
(1010 mb)
SSE 3.5 mph
(SSE 6 kph)
0.00 in
(0.00 mm)
10SM
07:56
Overcast
Light Rain
61°F / 16°C 57°F / 14°C 88% 29.83 in
(1010 mb)
S 3.5 mph
(S 6 kph)
0.01 in
(0.25 mm)
10SM
06:56
Overcast
Light Rain
61°F / 16°C 55°F / 13°C 83% 29.8 in
(1009 mb)
W 4.6 mph
(W 7 kph)
0.00 in
(0.00 mm)
8SM
05:56
Overcast
63°F / 17°C 55°F / 13°C 77% 29.77 in
(1008 mb)
NW 5.8 mph
(NW 9 kph)
- 10SM
04:56
Overcast
63°F / 17°C 55°F / 13°C 77% 29.74 in
(1007 mb)
SSW 3.5 mph
(SSW 6 kph)
- 10SM
03:56
Mostly Cloudy
63°F / 17°C 55°F / 13°C 77% 29.74 in
(1007 mb)
Calm - 10SM
02:56
Mostly Cloudy
61°F / 16°C 55°F / 13°C 83% 29.74 in
(1007 mb)
S 3.5 mph
(S 6 kph)
0.00 in
(0.00 mm)
10SM
01:56
Overcast
63°F / 17°C 55°F / 13°C 77% 29.74 in
(1007 mb)
Calm - 10SM
00:56
Overcast
64°F / 18°C 55°F / 13°C 73% 29.74 in
(1007 mb)
Calm - 10SM
Time Weather Temperature Dewpoint Humidity Pressure Winds Precip Visibility


Weather for websites

WeatherForYou.com, LLC is not responsible for any damages or problems caused by this service. Current weather conditions are obtained from the closest station including government and personal stations which may have varying degrees of accuracy. Weather forecasts are derived from the NOAA NDFD. Like all things, this site belongs to Jesus Christ... He just trusts me to maintain it. If you have any questions or comments email webmaster@weatherforyou.com

Copyright © 2014, WeatherForYou.com LLC. All rights reserved.